Weather History for West Palm Beach, FL

Change the Weather History Date:

Friday, November 11, 2011

  Actual Average Record
Temperature  
Mean Temperature 66 °F 74 °F  
Max Temperature 73 °F 81 °F 88 °F (1952)
Min Temperature 58 °F 66 °F 42 °F (1913)
Degree Days  
Heating Degree Days 0 0  
Month to date heating degree days 0 0  
Since 1 July heating degree days 0 1  
Cooling Degree Days 1 9  
Month to date cooling degree days 90 104  
Year to date cooling degree days 4379 3725  
Growing Degree Days 16 (Base 50)    
Moisture  
Dew Point 57 °F    
Average Humidity 75    
Maximum Humidity 93    
Minimum Humidity 57    
Precipitation  
Precipitation 0.00 in 0.19 in 1.76 in (1904)
Month to date precipitation 0.25 1.93  
Year to date precipitation 45.91 56.13  
Snow  
Snow 0.00 in - - ()
Month to date snowfall 0.0  
Since 1 July snowfall 0.0  
Since 1 September snowfall 0.0  
Snow Depth 0.00 in    
Sea Level Pressure  
Sea Level Pressure 30.05 in    
Wind  
Wind Speed 11 mph (NNW)    
Max Wind Speed 22 mph    
Max Gust Speed 28 mph    
Visibility 10 miles    
Events      
T = Trace of Precipitation, MM = Missing Value Source: NWS Daily Summary

Daily Weather History Graph

Daily Weather History Graph

Search for Another Location

Airport:

Trip Planner

Search our weather history database for the weather conditions in past years. The results will help you decide how hot, cold, wet, or windy it might be!

Date:

Astronomy

Nov. 11, 2011 Rise Set
Actual Time 6:36 AM EST 5:31 PM EST
Civil Twilight 6:12 AM EST 5:56 PM EST
Nautical Twilight 5:44 AM EST 6:23 PM EST
Astronomical Twilight 5:17 AM EST 6:51 PM EST
Moon 6:08 PM EST (11/11) 7:15 AM EST (11/11)
Length of Visible Light 11h 43m
Length of Day
10h 55m
Full, 99% of the Moon is Illuminated
Nov 11
Full
Nov 18
Last Quarter
Nov 25
New
Dec 2
First Quarter
Dec 10
Full

Hourly Weather History & Observations

Time (EST) Temp. Dew Point Humidity Pressure Visibility Wind Dir Wind Speed Gust Speed Precip Events Conditions
12:53 AM 63.0 °F 59.0 °F 87% 29.94 in 10.0 mi WNW 6.9 mph - N/A   Partly Cloudy
1:53 AM 63.0 °F 59.0 °F 87% 29.92 in 10.0 mi NW 6.9 mph - N/A   Partly Cloudy
2:53 AM 64.0 °F 61.0 °F 90% 29.92 in 10.0 mi NW 8.1 mph - N/A   Scattered Clouds
3:53 AM 66.0 °F 63.0 °F 90% 29.94 in 10.0 mi NNW 12.7 mph - N/A   Overcast
4:53 AM 66.0 °F 63.0 °F 90% 29.95 in 10.0 mi NNW 10.4 mph - N/A   Overcast
5:53 AM 64.9 °F 62.1 °F 90% 29.99 in 10.0 mi NNW 13.8 mph - N/A   Scattered Clouds
6:53 AM 64.0 °F 55.9 °F 75% 30.02 in 10.0 mi NNW 16.1 mph 25.3 mph N/A   Mostly Cloudy
7:53 AM 63.0 °F 52.0 °F 67% 30.06 in 10.0 mi NNW 12.7 mph - N/A   Mostly Cloudy
8:53 AM 63.0 °F 50.0 °F 63% 30.07 in 10.0 mi NNW 15.0 mph - N/A   Mostly Cloudy
9:53 AM 63.0 °F 50.0 °F 63% 30.09 in 10.0 mi NW 11.5 mph - N/A   Mostly Cloudy
10:53 AM 66.0 °F 53.1 °F 63% 30.08 in 10.0 mi North 9.2 mph - N/A   Mostly Cloudy
11:53 AM 72.0 °F 57.9 °F 61% 30.07 in 10.0 mi North 16.1 mph - N/A   Mostly Cloudy
12:53 PM 73.0 °F 59.0 °F 61% 30.05 in 10.0 mi NNW 13.8 mph 21.9 mph N/A   Mostly Cloudy
1:53 PM 73.0 °F 57.9 °F 59% 30.05 in 10.0 mi North 19.6 mph 26.5 mph N/A   Mostly Cloudy
2:53 PM 73.0 °F 57.0 °F 57% 30.05 in 10.0 mi North 19.6 mph - N/A   Mostly Cloudy
3:53 PM 71.1 °F 57.0 °F 61% 30.06 in 10.0 mi North 13.8 mph 23.0 mph N/A   Scattered Clouds
4:53 PM 70.0 °F 57.0 °F 63% 30.08 in 10.0 mi North 12.7 mph - N/A   Scattered Clouds
5:53 PM 66.0 °F 57.0 °F 73% 30.09 in 10.0 mi NNW 11.5 mph - N/A   Scattered Clouds
6:53 PM 64.9 °F 57.0 °F 75% 30.11 in 10.0 mi NNW 11.5 mph - N/A   Scattered Clouds
7:53 PM 63.0 °F 57.0 °F 81% 30.12 in 10.0 mi NW 8.1 mph - N/A   Scattered Clouds
8:53 PM 62.1 °F 57.0 °F 84% 30.14 in 10.0 mi NW 6.9 mph - N/A   Scattered Clouds
9:53 PM 61.0 °F 57.0 °F 87% 30.15 in 10.0 mi NNW 8.1 mph - N/A   Scattered Clouds
10:53 PM 60.1 °F 57.0 °F 90% 30.15 in 10.0 mi NW 4.6 mph - N/A   Scattered Clouds
11:53 PM 59.0 °F 57.0 °F 93% 30.15 in 10.0 mi WNW 3.5 mph - N/A   Mostly Cloudy